Wind_Speed
15 14 13 13 13 12 11 11 10 10 10 9 9 10 10 11 11 11 11 11 11 11 11 11 11 11 11 11 11 11 11 12 12 11 11 11 12 11 11 11 11 11
16 15 15 14 14 13 12 11 11 11 11 10 10 11 11 11 11 11 11 11 11 11 11 11 11 11 11 11 11 11 11 11 11 11 11 11 11 11 11 12 12 11
17 16 16 15 14 13 13 12 12 12 12 11 12 12 11 11 11 11 11 11 11 11 11 11 11 11 11 11 11 11 11 11 11 11 11 12 12 11 12 12 12 11
18 17 16 15 15 14 14 14 13 12 12 11 12 11 11 11 11 11 11 11 11 11 11 11 11 11 11 11 11 11 11 11 12 12 12 12 12 12 13 12 12 12
18 18 17 16 15 15 14 14 13 12 12 12 12 12 12 11 11 11 11 11 11 11 11 11 11 11 11 11 11 11 11 12 12 12 12 12 13 13 13 12 12 13
18 18 18 17 16 16 15 14 14 14 13 13 13 13 13 12 12 12 11 11 12 12 12 12 12 12 12 12 12 12 12 12 12 12 12 13 13 12 12 12 12 12
18 18 18 18 17 17 16 15 15 15 14 14 14 14 13 13 13 13 13 14 13 13 13 13 13 13 13 14 13 12 12 11 11 11 12 12 12 11 11 11 11 12
18 19 18 18 18 18 17 17 16 16 15 15 15 14 14 14 14 15 17 16 15 13 12 13 12 11 12 13 12 11 11 11 11 11 12 12 11 11 12 11 11 12
20 20 20 19 19 18 17 17 17 17 16 16 16 15 15 16 17 17 17 15 13 11 12 13 13 12 12 13 13 12 12 13 12 12 12 13 13 12 12 12 12 12
22 22 22 22 20 19 19 18 18 18 17 17 16 16 17 18 18 16 15 13 12 12 14 16 15 15 14 14 13 13 13 14 14 14 14 14 14 14 14 13 13 12
24 23 23 23 22 21 20 19 19 18 18 18 17 17 19 19 17 16 15 13 13 14 15 17 17 17 17 15 14 13 12 14 16 16 14 15 15 15 15 14 13 13
25 25 24 24 23 22 22 21 20 19 19 18 18 18 19 18 17 17 15 13 14 15 15 15 16 16 16 15 14 14 15 17 18 16 15 15 16 15 14 14 14 14
26 25 25 24 24 23 22 22 21 20 20 19 19 20 20 19 18 17 14 14 15 15 13 12 13 13 14 14 14 16 17 18 18 17 16 16 17 15 14 14 14 14
26 26 26 25 25 24 24 23 22 21 21 20 21 21 20 19 19 16 15 15 15 14 13 12 12 12 13 13 14 15 16 17 18 18 16 16 17 16 15 15 14 14
26 26 26 26 26 26 25 25 23 22 22 22 22 22 20 19 18 17 15 14 14 13 13 13 14 13 13 14 14 14 14 15 17 17 16 16 17 17 16 15 14 14
26 26 26 26 27 27 26 25 24 23 23 22 22 22 20 19 18 17 15 14 14 14 14 14 14 14 14 15 14 13 14 15 16 16 17 18 19 18 16 15 15 15
27 27 26 26 27 27 26 24 24 23 23 23 22 22 20 19 18 17 16 16 15 15 15 15 16 16 16 16 15 15 15 15 16 17 17 18 19 18 17 17 17 17
28 28 27 26 27 27 26 25 25 24 24 24 23 21 20 19 19 18 18 18 17 16 16 16 16 17 17 17 17 17 17 17 18 18 19 20 21 20 19 19 19 19
30 29 28 27 27 28 27 27 26 26 25 25 23 22 21 20 20 20 20 20 19 18 18 18 18 19 19 19 19 20 21 21 21 21 22 22 22 22 21 20 20 20
31 31 30 29 29 29 29 28 27 26 25 24 23 23 23 23 22 22 23 23 22 22 22 21 21 21 21 21 21 22 23 24 25 25 24 23 24 25 24 23 23 22
33 32 32 31 30 30 30 29 28 27 26 25 25 25 25 24 24 24 25 24 23 23 23 23 23 23 23 23 24 24 26 27 27 28 27 25 26 28 27 25 25 25
34 33 33 33 32 31 31 30 29 29 28 27 27 27 26 26 25 26 26 24 24 24 24 24 24 24 25 25 26 26 27 28 30 30 29 29 29 30 29 27 26 27
37 37 35 34 33 32 32 32 31 31 29 28 28 27 27 26 26 27 27 24 23 24 26 26 26 27 27 27 28 28 28 29 30 31 31 31 31 31 30 29 28 28
42 42 38 36 36 36 35 34 33 31 29 28 28 27 27 25 24 25 26 24 24 26 28 28 28 29 29 29 30 31 32 33 33 33 33 33 32 32 33 31 30 30
42 42 38 37 38 38 37 36 35 32 29 27 26 26 26 24 24 24 26 26 27 28 28 28 30 31 32 33 33 33 35 36 36 36 36 34 34 36 34 33 35 35
42 41 40 39 38 37 36 36 33 29 25 25 25 25 25 25 24 25 27 28 28 29 29 29 31 33 32 33 35 36 38 39 39 40 39 38 39 38 35 37 39 36
Wind_Direction
207 206 205 204 204 208 208 202 197 200 204 201 200 204 203 206 209 209 210 213 216 219 220 221 223 224 226 227 226 228 232 234 237 241 246 248 249 251 257 262 264 265
207 207 207 206 206 209 211 209 204 204 206 206 207 209 208 210 212 209 209 211 213 218 218 217 219 221 221 223 224 227 231 235 240 242 244 245 248 251 256 260 263 265
207 207 207 208 209 210 212 214 213 212 210 208 210 213 212 213 215 214 213 213 215 220 222 219 219 222 223 225 227 230 234 238 242 244 245 247 252 255 258 261 265 271
208 209 208 209 211 212 214 215 216 217 216 213 213 216 216 216 217 218 218 218 220 224 226 224 224 225 227 228 229 232 236 239 243 245 247 251 256 259 262 266 271 276
206 209 209 210 213 216 218 217 217 218 218 217 217 218 220 220 222 223 223 223 224 226 230 233 233 232 231 232 234 236 238 240 245 248 249 251 255 257 261 265 267 269
204 207 210 213 216 220 222 220 218 218 218 219 220 221 221 222 222 225 227 227 227 229 232 236 237 237 237 236 236 237 241 245 249 252 252 251 253 255 259 262 264 266
202 206 210 214 218 221 222 221 220 220 219 221 222 222 223 223 222 223 225 227 227 228 230 232 235 239 242 244 244 242 243 247 250 253 254 253 255 258 260 265 268 271
204 207 210 214 219 221 221 221 222 222 222 224 224 225 227 228 226 224 224 226 227 230 236 241 242 248 255 261 265 262 254 248 246 248 252 253 255 257 261 266 268 270
209 209 211 215 218 220 221 220 222 224 225 226 227 229 231 232 229 228 230 234 239 243 249 253 253 255 259 263 266 266 260 253 248 247 249 250 251 254 257 261 264 268
215 213 214 216 218 220 222 222 223 224 226 227 228 229 233 233 231 232 236 241 248 252 252 251 250 250 250 253 255 254 256 258 255 250 248 248 249 252 255 259 263 268
217 217 216 217 219 221 222 224 225 225 226 227 228 230 234 236 236 238 240 241 246 252 251 247 246 245 245 247 247 246 249 255 256 253 250 251 253 254 258 263 265 268
219 220 220 220 221 223 224 225 225 226 226 226 228 233 236 239 240 241 243 242 245 252 254 249 245 246 247 246 242 241 244 249 253 253 253 255 257 257 260 263 265 267
222 221 222 223 224 224 226 227 227 225 226 227 230 234 238 241 242 242 242 240 242 250 254 251 249 249 248 245 241 241 245 249 251 250 248 253 257 258 259 262 265 269
225 224 224 224 225 226 226 227 227 225 225 227 230 234 238 239 240 241 239 237 241 247 248 247 248 250 250 251 249 248 248 249 249 247 246 250 254 255 257 261 266 271
226 226 225 224 225 226 225 226 226 224 224 226 229 234 238 239 240 239 237 238 242 246 247 246 244 245 250 257 257 252 248 247 246 247 248 250 252 253 255 259 263 268
226 227 226 225 224 225 225 225 225 225 225 227 230 234 238 240 240 240 240 243 244 244 246 246 243 244 250 257 258 253 248 245 245 249 251 251 252 253 255 256 258 260
224 225 226 224 223 224 224 224 225 227 229 230 231 235 239 241 242 242 243 245 244 242 242 243 243 246 250 256 257 253 249 246 247 250 253 254 255 255 254 254 253 253
223 226 226 224 223 224 224 224 225 227 229 231 232 234 238 241 243 244 244 244 242 240 241 241 241 244 249 255 257 255 254 254 254 253 253 253 253 252 251 251 251 252
224 225 226 224 224 224 224 224 225 226 228 230 231 234 237 239 241 242 243 244 244 243 243 243 242 245 250 255 258 260 260 261 262 261 259 257 256 256 254 252 251 253
226 226 226 225 224 224 224 225 225 227 229 230 232 234 236 238 239 241 243 244 245 246 247 248 249 250 253 257 260 261 262 264 264 263 262 263 264 264 262 260 257 256
228 227 227 226 226 226 226 225 224 226 229 231 234 235 238 240 241 243 245 247 249 251 252 254 256 256 257 259 260 261 263 264 264 264 264 265 266 268 270 272 271 266
230 229 228 227 226 227 228 226 225 225 227 230 234 237 240 243 245 248 250 252 254 257 258 258 259 259 260 261 261 262 263 264 265 268 269 268 270 272 274 277 276 270
229 227 226 226 225 225 227 228 227 227 229 231 235 240 243 245 248 253 257 258 258 260 261 260 260 261 262 264 265 264 264 265 266 266 267 269 271 272 273 273 271 267
229 227 223 222 222 222 224 227 228 228 230 233 235 240 245 248 250 254 260 264 264 265 265 266 267 268 269 270 271 271 269 267 266 267 267 267 268 270 270 269 267 265
233 233 230 225 223 221 221 224 226 225 227 232 236 238 244 248 250 254 261 264 265 266 269 273 275 275 275 275 275 275 273 270 268 268 268 266 267 267 265 265 265 261
232 232 235 236 233 228 224 224 225 222 222 231 238 240 244 247 250 255 262 265 265 266 270 274 276 277 279 280 276 272 273 274 272 268 266 266 266 264 265 267 264 254
Height
3203 3205 3206 3207 3208 3209 3210 3211 3211 3212 3213 3214 3215 3216 3216 3217 3218 3219 3219 3220 3220 3221 3222 3222 3222 3223 3223 3223 3224 3224 3224 3224 3224 3224 3224 3225 3225 3224 3224 3224 3224 3223
3202 3203 3205 3206 3207 3208 3209 3210 3211 3212 3213 3214 3215 3215 3216 3217 3217 3218 3219 3219 3220 3220 3221 3221 3222 3222 3222 3223 3223 3223 3223 3223 3223 3223 3223 3223 3223 3223 3223 3223 3223 3222
3200 3202 3204 3205 3206 3207 3208 3209 3210 3211 3212 3213 3214 3215 3216 3216 3217 3218 3218 3219 3219 3220 3220 3221 3221 3221 3222 3222 3222 3222 3222 3223 3223 3223 3223 3222 3222 3222 3222 3222 3222 3221
3199 3201 3203 3204 3205 3206 3207 3208 3209 3210 3211 3212 3213 3214 3215 3216 3216 3217 3218 3218 3219 3219 3220 3220 3220 3221 3221 3221 3221 3221 3222 3222 3222 3221 3221 3221 3221 3221 3221 3220 3220 3220
3198 3200 3201 3203 3204 3205 3206 3207 3209 3210 3211 3212 3213 3213 3214 3215 3216 3217 3217 3218 3218 3218 3219 3219 3220 3220 3220 3220 3220 3220 3221 3221 3220 3220 3220 3220 3220 3219 3219 3219 3219 3218
3196 3198 3200 3201 3202 3204 3205 3206 3207 3208 3210 3211 3211 3212 3213 3214 3215 3215 3216 3217 3217 3217 3218 3218 3219 3219 3219 3219 3219 3219 3219 3220 3220 3219 3219 3219 3219 3218 3218 3218 3217 3217
3195 3196 3198 3200 3201 3202 3203 3205 3206 3207 3208 3209 3210 3211 3212 3213 3213 3214 3214 3214 3215 3215 3216 3216 3217 3217 3218 3218 3219 3219 3219 3219 3219 3218 3218 3218 3218 3218 3217 3217 3217 3217
3194 3195 3196 3198 3199 3200 3202 3203 3205 3206 3207 3208 3209 3210 3210 3211 3211 3211 3212 3212 3213 3215 3215 3216 3216 3217 3217 3218 3219 3219 3219 3218 3217 3217 3217 3217 3217 3216 3216 3216 3216 3216
3192 3193 3195 3196 3197 3199 3200 3202 3203 3205 3206 3207 3208 3209 3209 3209 3209 3210 3211 3213 3215 3216 3216 3216 3216 3216 3216 3217 3217 3217 3217 3217 3216 3215 3215 3215 3215 3215 3215 3215 3215 3215
3190 3192 3193 3194 3195 3197 3199 3200 3202 3203 3204 3205 3207 3208 3208 3207 3208 3210 3212 3213 3214 3215 3214 3214 3214 3214 3214 3215 3215 3215 3216 3216 3216 3215 3214 3214 3214 3213 3213 3213 3214 3214
3188 3189 3191 3192 3194 3195 3197 3199 3200 3201 3203 3204 3205 3206 3206 3206 3208 3209 3211 3212 3212 3212 3212 3212 3212 3212 3212 3213 3213 3213 3213 3214 3214 3214 3213 3213 3213 3212 3212 3212 3212 3212
3186 3187 3189 3190 3192 3194 3195 3197 3198 3199 3201 3202 3203 3204 3204 3205 3206 3208 3209 3210 3211 3211 3211 3210 3210 3211 3211 3211 3211 3210 3211 3211 3212 3212 3212 3212 3212 3211 3211 3211 3211 3211
3184 3185 3187 3189 3190 3192 3193 3195 3196 3197 3199 3200 3201 3201 3202 3203 3205 3206 3207 3208 3209 3209 3209 3209 3209 3209 3210 3209 3209 3208 3208 3209 3209 3209 3209 3209 3210 3210 3209 3209 3209 3209
3182 3183 3185 3187 3188 3190 3191 3192 3193 3195 3196 3198 3199 3199 3200 3201 3203 3204 3205 3206 3207 3207 3207 3207 3207 3208 3208 3208 3207 3207 3207 3207 3207 3207 3207 3207 3208 3208 3207 3207 3207 3208
3180 3181 3183 3184 3186 3187 3188 3190 3191 3192 3194 3195 3196 3197 3198 3200 3201 3202 3203 3204 3205 3205 3205 3206 3206 3206 3206 3206 3205 3205 3205 3205 3205 3205 3205 3205 3206 3205 3205 3205 3205 3205
3178 3179 3181 3182 3183 3184 3186 3187 3189 3190 3192 3193 3194 3195 3196 3197 3199 3200 3201 3202 3202 3203 3203 3204 3204 3204 3204 3204 3204 3203 3203 3203 3203 3203 3203 3203 3203 3203 3202 3202 3203 3203
3175 3177 3178 3179 3180 3182 3183 3185 3187 3188 3189 3190 3191 3192 3194 3195 3196 3197 3198 3199 3200 3200 3201 3201 3202 3202 3202 3202 3202 3201 3201 3201 3201 3201 3200 3201 3200 3200 3200 3200 3200 3200
3173 3174 3175 3177 3178 3179 3181 3182 3184 3185 3186 3188 3189 3190 3191 3193 3194 3195 3196 3196 3197 3198 3198 3199 3199 3199 3199 3199 3199 3199 3199 3199 3198 3198 3198 3197 3197 3196 3197 3197 3197 3197
3170 3171 3173 3174 3176 3177 3178 3179 3181 3182 3183 3185 3186 3188 3189 3190 3191 3192 3193 3193 3194 3195 3195 3196 3196 3196 3197 3197 3197 3196 3196 3196 3196 3195 3194 3194 3194 3194 3194 3194 3194 3194
3168 3169 3170 3172 3173 3175 3176 3176 3178 3179 3180 3182 3184 3185 3186 3187 3188 3189 3189 3190 3191 3192 3192 3193 3194 3194 3194 3194 3194 3194 3193 3193 3192 3191 3191 3192 3193 3192 3192 3192 3192 3193
3164 3166 3167 3169 3170 3172 3173 3173 3175 3176 3177 3179 3180 3181 3182 3183 3184 3185 3186 3187 3188 3189 3190 3191 3191 3192 3192 3192 3192 3191 3191 3190 3188 3187 3187 3189 3190 3189 3189 3190 3191 3191
3161 3163 3164 3166 3167 3169 3170 3171 3171 3172 3173 3174 3176 3177 3179 3180 3182 3182 3183 3185 3187 3187 3188 3188 3188 3189 3189 3189 3189 3189 3188 3188 3186 3185 3185 3185 3186 3187 3187 3188 3189 3189
3156 3157 3160 3162 3164 3165 3166 3166 3167 3168 3170 3171 3173 3174 3176 3177 3179 3180 3181 3183 3185 3185 3185 3185 3185 3185 3186 3186 3186 3186 3186 3185 3184 3183 3183 3183 3184 3184 3184 3185 3185 3185
3148 3150 3153 3156 3158 3160 3160 3161 3162 3164 3167 3169 3170 3171 3173 3175 3177 3177 3177 3179 3181 3181 3181 3182 3183 3183 3184 3184 3184 3184 3183 3183 3182 3181 3181 3181 3181 3181 3181 3181 3181 3181
3145 3148 3151 3153 3153 3154 3154 3155 3158 3161 3164 3166 3166 3168 3170 3172 3173 3173 3174 3174 3176 3177 3178 3180 3180 3180 3181 3180 3180 3180 3179 3179 3179 3179 3178 3177 3177 3176 3177 3177 3176 3175
3141 3145 3149 3151 3152 3153 3152 3152 3156 3159 3161 3162 3163 3165 3167 3168 3170 3170 3171 3171 3171 3173 3176 3177 3177 3176 3177 3176 3176 3176 3175 3174 3175 3175 3173 3173 3173 3172 3173 3173 3171 3169